Woensdrecht, Netherlands

11:25 PM CET on March 25, 2017 (GMT +0100)
Woensdrecht Air Base

Weather History for EHWO - February, 2013

Change the Weather History Date:

Thursday, February 21, 2013

  Actual Average Record
Temperature  
Mean Temperature 28 °F -  
Max Temperature 33 °F 47 °F 53 °F (2016)
Min Temperature 24 °F 35 °F 21 °F (2003)
Degree Days  
Heating Degree Days 36    
Moisture  
Dew Point 22 °F    
Average Humidity 75    
Maximum Humidity 93    
Minimum Humidity 56    
Precipitation  
Precipitation 0.00 in - - ()
Sea Level Pressure  
Sea Level Pressure 30.24 in    
Wind  
Wind Speed 9 mph ()    
Max Wind Speed 16 mph    
Max Gust Speed -    
Visibility 6.2 miles    
Events      
Averages and records for this station are not official NWS values.
T = Trace of Precipitation, MM = Missing Value Source: Averaged Metar Reports

Daily Weather History Graph

Daily Weather History Graph

Search for Another Location

Airport or City:

Trip Planner

Search our weather history database for the weather conditions in past years. The results will help you decide how hot, cold, wet, or windy it might be!

Date:

Astronomy

Feb. 21, 2013 Rise Set
Actual Time 7:44 AM CET 6:09 PM CET
Civil Twilight 7:10 AM CET 6:43 PM CET
Nautical Twilight 6:31 AM CET 7:21 PM CET
Astronomical Twilight 5:53 AM CET 8:00 PM CET
Moon 1:50 PM CET (2/21) 4:57 AM CET (2/21)
Length of Visible Light 11h 32m
Length of Day
10h 24m
Waxing Gibbous, 82% of the Moon is Illuminated
Feb 21
Waxing Gibbous
Feb 25
Full
Mar 4
Last Quarter
Mar 11
New
Mar 19
First Quarter

Hourly Weather History & Observations

Time (CET) Temp. Windchill Dew Point Humidity Pressure Visibility Wind Dir Wind Speed Gust Speed Precip Events Conditions
12:25 AM 26.6 °F 19.1 °F 21.2 °F 80% 30.30 in 6.2 mi NE 6.9 mph - N/A   Unknown
12:55 AM 24.8 °F 16.9 °F 23.0 °F 93% 30.30 in 6.2 mi NE 6.9 mph - N/A   Unknown
1:25 AM 26.6 °F 18.2 °F 23.0 °F 86% 30.30 in 6.2 mi NE 8.1 mph - N/A   Unknown
1:55 AM 26.6 °F 17.5 °F 23.0 °F 86% 30.30 in 6.2 mi NE 9.2 mph - N/A   Unknown
2:25 AM 26.6 °F 18.2 °F 23.0 °F 86% 30.30 in 6.2 mi ENE 8.1 mph - N/A   Unknown
2:55 AM 26.6 °F 17.5 °F 24.8 °F 93% 30.27 in 6.2 mi NE 9.2 mph - N/A   Unknown
3:25 AM 26.6 °F 18.2 °F 23.0 °F 86% 30.27 in 6.2 mi NE 8.1 mph - N/A   Unknown
3:55 AM 24.8 °F 16.1 °F 21.2 °F 86% 30.27 in 6.2 mi NE 8.1 mph - N/A   Unknown
4:25 AM 24.8 °F 16.1 °F 23.0 °F 93% 30.27 in 6.2 mi NE 8.1 mph - N/A   Unknown
4:55 AM 24.8 °F 15.3 °F 21.2 °F 86% 30.27 in 6.2 mi NE 9.2 mph - N/A   Unknown
5:25 AM 24.8 °F 15.3 °F 21.2 °F 86% 30.27 in 6.2 mi NE 9.2 mph - N/A   Unknown
5:55 AM 26.6 °F 16.2 °F 23.0 °F 86% 30.27 in 6.2 mi NE 11.5 mph - N/A   Unknown
6:25 AM 26.6 °F 17.5 °F 23.0 °F 86% 30.27 in 6.2 mi NE 9.2 mph - N/A   Unknown
6:55 AM 24.8 °F 15.3 °F 21.2 °F 86% 30.27 in 6.2 mi ENE 9.2 mph - N/A   Unknown
7:25 AM 24.8 °F 16.1 °F 21.2 °F 86% 30.27 in 6.2 mi NE 8.1 mph - N/A   Unknown
7:55 AM 24.8 °F 15.3 °F 21.2 °F 86% 30.27 in 6.2 mi NE 9.2 mph - N/A   Unknown
8:25 AM 26.6 °F 17.5 °F 23.0 °F 86% 30.27 in 6.2 mi NE 9.2 mph - N/A   Unknown
8:55 AM 28.4 °F 19.1 °F 24.8 °F 86% 30.27 in 6.2 mi NE 10.4 mph - N/A   Unknown
9:25 AM 28.4 °F 18.5 °F 24.8 °F 86% 30.27 in 6.2 mi ENE 11.5 mph - N/A   Unknown
9:55 AM 30.2 °F 20.8 °F 24.8 °F 80% 30.27 in 6.2 mi NE 11.5 mph - N/A   Overcast
10:25 AM 30.2 °F 19.8 °F 24.8 °F 80% 30.27 in 6.2 mi ENE 13.8 mph - N/A   Overcast
10:55 AM 32.0 °F 22.5 °F 26.6 °F 80% 30.27 in 6.2 mi NE 12.7 mph - N/A   Mostly Cloudy
11:25 AM 32.0 °F 21.6 °F 24.8 °F 75% 30.27 in 6.2 mi ENE 15.0 mph - N/A   Mostly Cloudy
11:55 AM 32.0 °F 22.1 °F 26.6 °F 80% 30.27 in 6.2 mi ENE 13.8 mph - N/A   Overcast
12:25 PM 33.8 °F 24.3 °F 26.6 °F 75% 30.27 in 6.2 mi ENE 13.8 mph - N/A   Overcast
12:55 PM 33.8 °F 23.5 °F 24.8 °F 70% 30.24 in 6.2 mi ENE 16.1 mph - N/A   Overcast
1:25 PM 33.8 °F 24.3 °F 23.0 °F 65% 30.24 in 6.2 mi NE 13.8 mph - N/A   Mostly Cloudy
1:55 PM 33.8 °F 24.3 °F 23.0 °F 65% 30.24 in 6.2 mi ENE 13.8 mph - N/A   Overcast
2:25 PM 33.8 °F 24.8 °F 23.0 °F 65% 30.21 in 6.2 mi ENE 12.7 mph - N/A   Overcast
2:55 PM 33.8 °F 24.3 °F 21.2 °F 60% 30.21 in 6.2 mi ENE 13.8 mph - N/A   Mostly Cloudy
3:25 PM 33.8 °F 24.3 °F 19.4 °F 56% 30.21 in 6.2 mi ENE 13.8 mph - N/A   Overcast
3:55 PM 33.8 °F 24.8 °F 21.2 °F 60% 30.21 in 6.2 mi NE 12.7 mph - N/A   Overcast
4:25 PM 33.8 °F 25.3 °F 21.2 °F 60% 30.18 in 6.2 mi NE 11.5 mph - N/A   Overcast
4:55 PM 33.8 °F 25.3 °F 19.4 °F 56% 30.18 in 6.2 mi ENE 11.5 mph - N/A   Overcast
5:25 PM 32.0 °F 22.1 °F 21.2 °F 64% 30.18 in 6.2 mi NE 13.8 mph - N/A   Mostly Cloudy
5:55 PM 30.2 °F 20.2 °F 21.2 °F 69% 30.18 in 6.2 mi NE 12.7 mph - N/A   Partly Cloudy
6:25 PM 32.0 °F 22.1 °F 21.2 °F 64% 30.18 in 6.2 mi NE 13.8 mph - N/A   Mostly Cloudy
6:55 PM 32.0 °F 23.6 °F 19.4 °F 60% 30.18 in 6.2 mi NE 10.4 mph - N/A   Mostly Cloudy
7:25 PM 30.2 °F 21.3 °F 19.4 °F 64% 30.18 in 6.2 mi NE 10.4 mph - N/A   Unknown
7:55 PM 28.4 °F 19.1 °F 19.4 °F 69% 30.18 in 6.2 mi NE 10.4 mph - N/A   Unknown
8:25 PM 30.2 °F 21.9 °F 19.4 °F 64% 30.18 in 6.2 mi NE 9.2 mph - N/A   Overcast
8:55 PM 30.2 °F 21.9 °F 21.2 °F 69% 30.18 in 6.2 mi NE 9.2 mph - N/A   Overcast
9:25 PM 30.2 °F 21.3 °F 21.2 °F 69% 30.18 in 6.2 mi NE 10.4 mph - N/A   Mostly Cloudy
9:55 PM 30.2 °F 20.2 °F 21.2 °F 69% 30.18 in 6.2 mi NE 12.7 mph - N/A   Partly Cloudy
10:25 PM 30.2 °F 20.2 °F 21.2 °F 69% 30.18 in 6.2 mi NE 12.7 mph - N/A   Mostly Cloudy
10:55 PM 30.2 °F 20.2 °F 21.2 °F 69% 30.18 in 6.2 mi NE 12.7 mph - N/A   Overcast
11:25 PM 28.4 °F 18.5 °F 21.2 °F 74% 30.15 in 6.2 mi NE 11.5 mph - N/A   Unknown
11:55 PM 28.4 °F 19.7 °F 21.2 °F 74% 30.15 in 6.2 mi NE 9.2 mph - N/A   Partly Cloudy